Regional Weather Roundup
Issued by NWS

Home | Current Version | Previous Version | Graphics & Text | Print | Product List | Glossary On
Versions: 1 2 3 4 5 6 7 8 9 10 11 12 13 14 15 16 17 18 19 20 21 22 23 24 25 26 27 28 29 30 31 32 33 34 35 36 37 38 39 40 41 42 43 44 45 46 47 48 49 50
000
ASUS43 KLMK 302202
RWRKY
KENTUCKY REGIONAL WEATHER ROUNDUP
NATIONAL WEATHER SERVICE LOUISVILLE KY
600 PM EDT MON MAR 30 2015

NOTE "FAIR" INDICATES FEW OR NO CLOUDS BELOW 12,000 FEET
WITH NO SIGNIFICANT WEATHER AND/OR OBSTRUCTIONS TO VISIBILITY.

KYZ001>023-026-027-061>063-070>075-302300-
WESTERN AND SOUTH CENTRAL KENTUCKY

CITY           SKY/WX    TMP DP  RH WIND       PRES   REMARKS
PADUCAH        SUNNY     66  31  27 W14       30.11F
HENDERSON      SUNNY     64  28  25 SW7       30.10F
OWENSBORO      SUNNY     64  32  30 NW7       30.11F
HOPKINSVILLE   NOT AVBL
BOWLING GREEN  SUNNY     65  25  22 NW9       30.11F
GLASGOW        NOT AVBL
$$

KYZ024-025-028>034-038-045-046-053-302300-
NORTH CENTRAL KENTUCKY

CITY           SKY/WX    TMP DP  RH WIND       PRES   REMARKS
LOUISVILLE/SDF SUNNY     64  26  23 NW7       30.08F
LOUISVILLE/LOU SUNNY     63  26  24 W10       30.08F
FORT KNOX      SUNNY     63  27  25 W10       30.06F
$$

KYZ035>037-039>044-047>052-055>060-089>105-302300-
NORTHEAST KENTUCKY

CITY           SKY/WX    TMP DP  RH WIND       PRES   REMARKS
LEXINGTON      SUNNY     59  25  27 W10G20    30.09R
COVINGTON      PTSUNNY   59  28  30 W18       30.05F
FRANKFORT      SUNNY     60  25  26 W13       30.08R
$$

KYZ054-064>069-076>088-106>120-302300-
SOUTHEAST KENTUCKY

CITY           SKY/WX    TMP DP  RH WIND       PRES   REMARKS
JACKSON        SUNNY     60  27  28 VRB7G17   30.05F
LONDON         SUNNY     63  26  24 W12       30.05F
SOMERSET       NOT AVBL
MIDDLESBORO    SUNNY     63  32  30 NW8       30.05F
MONTICELLO     CLEAR     64  28  25 NW14      30.10F
$$




USA.gov is the U.S. government's official web portal to all federal, state and local government web resources and services.